{"data":{"norad_id":65065,"epoch":"2026-09-20T10:33:23.849568Z","epoch_age_seconds":126046,"freshness":"FRESH","line1":"1 65065U 25165K   26263.43985937  .00011256  00000+0  35037-3 0  9993","line2":"2 65065  97.2854 334.6206 0001623  94.9715 265.1713 15.33454600 64118","mean_motion":15.334546,"eccentricity":0.0001623,"inclination_deg":97.2854,"raan_deg":334.6206,"arg_perigee_deg":94.9715,"mean_anomaly_deg":265.1713,"bstar":0.00035037,"rev_number":6411,"period_min":93.90561676883,"perigee_km":464.40388712473,"apogee_km":466.62533643791,"semimajor_km":6843.6516117813,"source":"CELESTRAK","updated_at":"2026-09-21T09:00:35.499687Z"}}